Regional Weather Roundup
Issued by NWS

Home | Current Version | Previous Version | Text Only | Print | Product List | Glossary Off
Versions: 1 2 3 4 5 6 7 8 9 10 11 12 13 14 15 16 17 18 19 20 21 22 23 24 25 26 27 28 29 30 31 32 33 34 35 36 37 38 39 40 41 42 43 44 45 46 47 48 49 50

000
ASUS43 KIND 220809
RWRIN

WEATHER ROUNDUP FOR INDIANA
NATIONAL WEATHER SERVICE INDIANAPOLIS IN
300 AM EST MON JAN 22 2018

NOTE: "FAIR" INDICATES FEW OR NO CLOUDS BELOW 12,000 FEET WITH NO
SIGNIFICANT WEATHER AND/OR OBSTRUCTIONS TO VISIBILITY.

* - STATION DOES NOT REPORT WEATHER SUCH AS PRECIPITATION OR FOG.

+ - STATION NOT QUALITY CONTROLLED BY THE NATIONAL WEATHER SERVICE.
    USE DATA WITH CAUTION...ESPECIALLY DEWPOINT AND RELATIVE
    HUMIDITY OBSERVATIONS.

INZ001>003-010>013-019-020-220900-
NORTHWEST INDIANA

CITY           SKY/WX    TMP DP  RH WIND       PRES   REMARKS
GARY /AIRPORT/ LGT RAIN  49  49 100 SE3       29.79F
KNOX *+        CLOUDY    45  45 100 SE8       29.82S
LA PORTE +     RAIN      42  42 100 SE5       29.82F VSB 1/4
MICHIGAN CITY+ LGT RAIN  46  46 100 CALM      29.81F
MONTICELLO +   LGT RAIN  48  46  95 SE3       29.81F
RENSSELAER +   LGT RAIN  43  41  93 SE7       29.80F
VALPARAISO     RAIN      48  47  96 SE9       29.80F FOG

$$

LMZ046-743>745-220900-
SOUTHERN LAKE MICHIGAN

STATION/POSITION TIME  TEMP    WIND        PRES    WAVE
                       AIR SEA DIR/SP/G            HT
                 (UTC) (F)     (DEG/KT/KT) (MB)    (FT)
BURNS HARBOR     0740   50     160/ 14/ 17 1009.5F
MICHIGAN CITY    0740   47     140/ 10/ 12   N/A

$$

INZ004-005-014>016-021>024-220900-
NORTH CENTRAL INDIANA

CITY           SKY/WX    TMP DP  RH WIND       PRES   REMARKS
GOSHEN         LGT RAIN  46  45  96 SE8       29.84F
LOGANSPORT +   CLOUDY    45  45 100 S8        29.84F
PERU/GRISSOM   MOCLDY    47  47 100 S9        29.84F
ROCHESTER +    CLOUDY    48 N/A N/A S8        29.84F HAZE
SOUTH BEND     LGT RAIN  45  44  97 SE5       29.84F
WARSAW +       LGT RAIN  46  46 100 SE3       29.85F

$$

INZ006>009-017-018-025>027-220900-
NORTHEAST INDIANA

CITY           SKY/WX    TMP DP  RH WIND       PRES   REMARKS
AUBURN +       RAIN     N/A N/A N/A SE3       29.89F VSB 3/4
FORT WAYNE     DRZL/FOG  46  45  96 SE7       29.88F VSB 1/4
HUNTINGTON +   CLOUDY    48  46  95 S6        29.87S
KENDALLVILLE + LGT RAIN  46  46 100 SE5       29.88S

$$

INZ028-029-035-036-043>045-051>053-220900-
WEST CENTRAL INDIANA

CITY           SKY/WX    TMP DP  RH WIND       PRES   REMARKS
CRAWFORDSVL +  CLOUDY    50  50  99 MISG        N/A
GREENCASTLE +  CLOUDY    52  46  82 S9        29.86S
LAFAYETTE      CLOUDY    51  49  92 S8        29.81F
TERRE HAUTE    MOCLDY    51  45  79 S10       29.82F

$$

INZ030>032-037>040-046>048-054>057-064-065-220900-
CENTRAL INDIANA

CITY           SKY/WX    TMP DP  RH WIND       PRES   REMARKS
FISHERS *+       N/A     48  48 100 S8        29.88S
FRANKFORT +    CLOUDY   N/A N/A N/A S8        29.86S
GREENWOOD *+   CLOUDY    50  48  94 S7        29.89F
INDIANAPOLIS   MOCLDY    48  47  96 SE7       29.88F
-EAGLE CREEK   CLOUDY    50  48  93 SE5       29.86F
MARION +       MOCLDY    49  48  99 S13       29.88S
MT COMFORT *+  CLOUDY    48  48 100 S8        29.89S
SHELBYVILLE    CLOUDY    51  45  79 S14       29.89F
ZIONSVILLE +   RAIN      48  48 100 S9        29.87F

$$

INZ033-034-041-042-049-050-058-059-220900-
EAST CENTRAL INDIANA

CITY           SKY/WX    TMP DP  RH WIND       PRES   REMARKS
MUNCIE         CLOUDY    55  47  74 S14G21    29.88F
RICHMOND +     CLOUDY    45  45 100 S10       29.94S

$$

INZ060-061-067>069-081>083-085>088-220900-
SOUTHWEST INDIANA

CITY           SKY/WX    TMP DP  RH WIND       PRES   REMARKS
EVANSVILLE     FAIR      54  45  71 S7        29.86F
HUNTINGBURG +  MOCLDY    55  45  68 S14       29.89F
WASHINGTON +   MOCLDY    52  41  68 S15       29.85F

$$

INZ062-063-066-070>080-084-089>092-220900-
SOUTH CENTRAL AND SOUTHEAST INDIANA

CITY           SKY/WX    TMP DP  RH WIND       PRES   REMARKS
BATESVILLE *+    N/A    N/A N/A N/A MISG        N/A
BEDFORD +      LGT RAIN  54  46  76 S7G17     29.89
BLOOMINGTON    CLOUDY    52  47  83 SE6       29.87F
FRENCH LICK *+ CLOUDY    55  41  58 S8        29.90F
MADISON *+     CLOUDY    54  45  71 S6        29.95F
NORTH VERNON + CLOUDY    54  46  76 S9        29.93F
SEYMOUR +      CLOUDY    55  46  71 S10       29.92

$$




USA.gov is the U.S. government's official web portal to all federal, state and local government web resources and services.